Time,TemperatureF,DewpointF,PressureIn,WindDirection,WindDirectionDegrees,WindSpeedMPH,WindSpeedGustMPH,Humidity,HourlyPrecipIn,Conditions,Clouds,dailyrainin,SoftwareType,DateUTC
2013-02-23 00:03:00,32.0,27.0,30.09,SE,146,3.0,9.0,81,0.00,,,0.00,,2013-02-23 05:03:00,
2013-02-23 00:12:00,32.0,27.0,30.09,SE,146,3.0,9.0,81,0.00,,,0.00,,2013-02-23 05:12:00,
2013-02-23 00:22:00,32.0,27.0,30.08,SE,126,4.0,9.0,80,0.00,,,0.00,,2013-02-23 05:22:00,
2013-02-23 00:33:00,31.0,26.0,30.08,SSE,164,4.0,8.0,80,0.00,,,0.00,,2013-02-23 05:33:00,
2013-02-23 00:42:00,31.0,26.0,30.08,SSE,164,4.0,8.0,80,0.00,,,0.00,,2013-02-23 05:42:00,
2013-02-23 00:52:00,32.0,27.0,30.08,SSE,157,5.0,10.0,80,0.00,,,0.00,,2013-02-23 05:52:00,
2013-02-23 01:01:00,32.0,27.0,30.08,South,177,3.0,8.0,80,0.00,,,0.00,,2013-02-23 06:01:00,
2013-02-23 01:11:00,32.0,27.0,30.08,South,177,3.0,8.0,80,0.00,,,0.00,,2013-02-23 06:11:00,
2013-02-23 01:22:00,32.0,27.0,30.08,South,185,4.0,7.0,81,0.00,,,0.00,,2013-02-23 06:22:00,
2013-02-23 01:32:00,32.0,27.0,30.07,South,190,5.0,10.0,81,0.00,,,0.00,,2013-02-23 06:32:00,
2013-02-23 01:42:00,32.0,27.0,30.07,South,190,5.0,10.0,81,0.00,,,0.00,,2013-02-23 06:42:00,
2013-02-23 01:52:00,32.0,27.0,30.06,South,171,6.0,11.0,81,0.00,,,0.00,,2013-02-23 06:52:00,
2013-02-23 02:01:00,32.0,27.0,30.07,SSE,148,5.0,10.0,81,0.00,,,0.00,,2013-02-23 07:01:00,
2013-02-23 02:11:00,32.0,27.0,30.07,SSE,148,5.0,10.0,81,0.00,,,0.00,,2013-02-23 07:11:00,
2013-02-23 02:21:00,32.0,27.0,30.07,South,190,7.0,12.0,81,0.00,,,0.00,,2013-02-23 07:21:00,
2013-02-23 02:32:00,32.0,27.0,30.07,South,174,6.0,9.0,81,0.00,,,0.00,,2013-02-23 07:32:00,
2013-02-23 02:42:00,32.0,27.0,30.07,South,174,6.0,9.0,81,0.00,,,0.00,,2013-02-23 07:42:00,
2013-02-23 02:52:00,32.0,27.0,30.06,SSE,164,4.0,10.0,81,0.00,,,0.00,,2013-02-23 07:52:00,
2013-02-23 03:01:00,32.0,27.0,30.06,SSE,160,4.0,7.0,81,0.00,,,0.00,,2013-02-23 08:01:00,
2013-02-23 03:11:00,32.0,27.0,30.06,SSE,160,4.0,7.0,81,0.00,,,0.00,,2013-02-23 08:11:00,
2013-02-23 03:21:00,32.0,27.0,30.06,South,184,5.0,10.0,82,0.00,,,0.00,,2013-02-23 08:21:00,
2013-02-23 03:32:00,32.0,27.0,30.06,South,173,3.0,8.0,82,0.00,,,0.00,,2013-02-23 08:32:00,
2013-02-23 03:42:00,32.0,27.0,30.06,South,173,3.0,8.0,82,0.00,,,0.00,,2013-02-23 08:42:00,
2013-02-23 03:53:00,32.0,27.0,30.06,SSE,159,4.0,9.0,81,0.00,,,0.00,,2013-02-23 08:53:00,
2013-02-23 04:02:00,32.0,27.0,30.05,SSE,155,3.0,9.0,81,0.00,,,0.00,,2013-02-23 09:02:00,
2013-02-23 04:11:00,32.0,27.0,30.05,SSE,155,3.0,9.0,81,0.00,,,0.00,,2013-02-23 09:11:00,
2013-02-23 04:22:00,32.0,28.0,30.04,SSE,164,3.0,9.0,84,0.00,,,0.00,,2013-02-23 09:22:00,
2013-02-23 04:32:00,31.0,27.0,30.04,SSW,192,3.0,9.0,85,0.00,,,0.00,,2013-02-23 09:32:00,
2013-02-23 04:42:00,31.0,27.0,30.04,SSW,192,3.0,9.0,85,0.00,,,0.00,,2013-02-23 09:42:00,
2013-02-23 04:52:00,31.0,27.0,30.04,South,169,2.0,5.0,84,0.00,,,0.00,,2013-02-23 09:52:00,
2013-02-23 05:01:00,32.0,27.0,30.04,SSE,151,3.0,8.0,83,0.00,,,0.00,,2013-02-23 10:01:00,
2013-02-23 05:11:00,32.0,27.0,30.04,SSE,165,3.0,6.0,83,0.00,,,0.00,,2013-02-23 10:11:00,
2013-02-23 05:21:00,32.0,27.0,30.04,SSE,165,3.0,6.0,83,0.00,,,0.00,,2013-02-23 10:21:00,
2013-02-23 05:32:00,32.0,27.0,30.04,SE,128,2.0,7.0,82,0.00,,,0.00,,2013-02-23 10:32:00,
2013-02-23 05:42:00,32.0,27.0,30.04,SE,128,2.0,7.0,82,0.00,,,0.00,,2013-02-23 10:42:00,
2013-02-23 05:52:00,32.0,27.0,30.04,SE,128,2.0,7.0,82,0.00,,,0.00,,2013-02-23 10:52:00,
2013-02-23 06:02:00,32.0,27.0,30.03,South,171,3.0,7.0,81,0.00,,,0.00,,2013-02-23 11:02:00,
2013-02-23 06:11:00,32.0,27.0,30.03,South,171,3.0,7.0,81,0.00,,,0.00,,2013-02-23 11:11:00,
2013-02-23 06:22:00,32.0,27.0,30.03,SSE,155,2.0,6.0,81,0.00,,,0.00,,2013-02-23 11:22:00,
2013-02-23 06:32:00,32.0,27.0,30.03,ESE,121,3.0,7.0,81,0.00,,,0.00,,2013-02-23 11:32:00,
2013-02-23 06:42:00,32.0,27.0,30.03,ESE,121,3.0,7.0,81,0.00,,,0.00,,2013-02-23 11:42:00,
2013-02-23 06:52:00,32.0,27.0,30.03,South,180,3.0,8.0,81,0.00,,,0.00,,2013-02-23 11:52:00,
2013-02-23 07:02:00,32.0,27.0,30.02,SSE,163,3.0,6.0,82,0.00,,,0.00,,2013-02-23 12:02:00,
2013-02-23 07:11:00,32.0,27.0,30.02,SSE,163,3.0,6.0,82,0.00,,,0.00,,2013-02-23 12:11:00,
2013-02-23 07:21:00,32.0,27.0,30.02,South,178,2.0,7.0,82,0.00,,,0.00,,2013-02-23 12:21:00,
2013-02-23 07:32:00,32.0,27.0,30.03,South,170,4.0,9.0,82,0.00,,,0.00,,2013-02-23 12:32:00,
2013-02-23 07:42:00,32.0,27.0,30.03,South,170,4.0,9.0,82,0.00,,,0.00,,2013-02-23 12:42:00,
2013-02-23 07:52:00,32.0,27.0,30.03,SSW,192,4.0,8.0,83,0.00,,,0.00,,2013-02-23 12:52:00,
2013-02-23 08:01:00,32.0,27.0,30.03,South,188,4.0,7.0,83,0.00,,,0.00,,2013-02-23 13:01:00,
2013-02-23 08:11:00,32.0,27.0,30.04,South,182,3.0,8.0,83,0.00,,,0.00,,2013-02-23 13:11:00,
2013-02-23 08:22:00,32.0,27.0,30.04,South,182,3.0,8.0,83,0.00,,,0.00,,2013-02-23 13:22:00,
2013-02-23 08:32:00,32.0,27.0,30.04,SSW,212,5.0,7.0,83,0.00,,,0.00,,2013-02-23 13:32:00,
2013-02-23 08:42:00,32.0,28.0,30.04,SE,146,3.0,9.0,84,0.00,,,0.00,,2013-02-23 13:42:00,
2013-02-23 08:52:00,32.0,28.0,30.04,SE,146,3.0,9.0,84,0.00,,,0.00,,2013-02-23 13:52:00,
2013-02-23 09:02:00,32.0,28.0,30.04,South,189,2.0,9.0,86,0.00,,,0.00,,2013-02-23 14:02:00,
2013-02-23 09:11:00,32.0,28.0,30.04,South,189,2.0,9.0,86,0.00,,,0.00,,2013-02-23 14:11:00,
2013-02-23 09:21:00,32.0,28.0,30.04,South,189,2.0,9.0,86,0.00,,,0.00,,2013-02-23 14:21:00,
2013-02-23 09:32:00,32.0,29.0,30.03,SSE,164,2.0,7.0,89,0.00,,,0.00,,2013-02-23 14:32:00,
2013-02-23 09:42:00,32.0,29.0,30.03,SSE,164,2.0,7.0,89,0.00,,,0.00,,2013-02-23 14:42:00,
2013-02-23 09:52:00,32.0,29.0,30.03,SSE,164,2.0,7.0,89,0.00,,,0.00,,2013-02-23 14:52:00,
2013-02-23 10:02:00,32.0,29.0,30.02,South,172,2.0,9.0,89,0.00,,,0.00,,2013-02-23 15:02:00,
2013-02-23 10:11:00,32.0,29.0,30.02,South,172,2.0,9.0,89,0.00,,,0.00,,2013-02-23 15:11:00,
2013-02-23 10:22:00,32.0,29.0,30.01,SSW,192,2.0,5.0,89,0.00,,,0.00,,2013-02-23 15:22:00,
2013-02-23 10:32:00,33.0,30.0,30.01,SSW,206,2.0,7.0,89,0.00,,,0.00,,2013-02-23 15:32:00,
2013-02-23 10:42:00,33.0,30.0,30.01,SSW,206,2.0,7.0,89,0.00,,,0.00,,2013-02-23 15:42:00,
2013-02-23 10:52:00,33.0,30.0,30.01,South,183,2.0,7.0,88,0.00,,,0.00,,2013-02-23 15:52:00,
2013-02-23 11:01:00,33.0,30.0,30.01,South,183,2.0,7.0,88,0.00,,,0.00,,2013-02-23 16:01:00,
2013-02-23 11:11:00,33.0,30.0,30.01,South,183,2.0,7.0,88,0.00,,,0.00,,2013-02-23 16:11:00,
2013-02-23 11:21:00,34.0,30.0,30.00,SE,144,3.0,7.0,86,0.00,,,0.00,,2013-02-23 16:21:00,
2013-02-23 11:31:00,34.0,30.0,29.99,SE,141,3.0,7.0,86,0.01,,,0.01,,2013-02-23 16:31:00,
2013-02-23 11:42:00,34.0,30.0,29.99,SE,141,3.0,7.0,86,0.01,,,0.01,,2013-02-23 16:42:00,
2013-02-23 11:52:00,35.0,31.0,29.99,SSE,158,3.0,7.0,85,0.01,,,0.01,,2013-02-23 16:52:00,
2013-02-23 12:01:00,35.0,30.0,29.99,South,175,4.0,8.0,83,0.02,,,0.02,,2013-02-23 17:01:00,
2013-02-23 12:11:00,35.0,30.0,29.98,SE,138,3.0,7.0,83,0.02,,,0.02,,2013-02-23 17:11:00,
2013-02-23 12:22:00,35.0,30.0,29.98,SE,138,3.0,7.0,83,0.02,,,0.02,,2013-02-23 17:22:00,
2013-02-23 12:32:00,36.0,31.0,29.98,SSW,207,4.0,7.0,82,0.01,,,0.02,,2013-02-23 17:32:00,
2013-02-23 12:42:00,36.0,31.0,29.98,SSW,207,4.0,7.0,82,0.01,,,0.02,,2013-02-23 17:42:00,
2013-02-23 12:52:00,36.0,31.0,29.98,South,173,3.0,9.0,82,0.01,,,0.02,,2013-02-23 17:52:00,
2013-02-23 13:02:00,36.0,31.0,29.97,SSE,155,2.0,5.0,82,0.00,,,0.02,,2013-02-23 18:02:00,
2013-02-23 13:12:00,36.0,31.0,29.97,SSE,155,2.0,5.0,82,0.00,,,0.02,,2013-02-23 18:12:00,
2013-02-23 13:22:00,36.0,31.0,29.97,SSE,155,2.0,5.0,82,0.00,,,0.02,,2013-02-23 18:22:00,
2013-02-23 13:32:00,37.0,31.0,29.96,South,174,3.0,7.0,80,0.00,,,0.02,,2013-02-23 18:32:00,
2013-02-23 13:42:00,37.0,31.0,29.96,South,174,3.0,7.0,80,0.00,,,0.02,,2013-02-23 18:42:00,
2013-02-23 13:52:00,37.0,31.0,29.95,SSE,148,3.0,7.0,80,0.00,,,0.02,,2013-02-23 18:52:00,
2013-02-23 14:01:00,37.0,31.0,29.95,SE,129,3.0,8.0,79,0.00,,,0.02,,2013-02-23 19:01:00,
2013-02-23 14:11:00,37.0,31.0,29.95,SE,129,3.0,8.0,79,0.00,,,0.02,,2013-02-23 19:11:00,
2013-02-23 14:21:00,37.0,31.0,29.95,SE,129,3.0,8.0,79,0.00,,,0.02,,2013-02-23 19:21:00,
2013-02-23 14:32:00,37.0,31.0,29.94,South,175,3.0,8.0,80,0.00,,,0.02,,2013-02-23 19:32:00,
2013-02-23 14:41:00,37.0,31.0,29.94,South,175,3.0,8.0,80,0.00,,,0.02,,2013-02-23 19:41:00,
2013-02-23 14:52:00,37.0,31.0,29.94,South,176,2.0,9.0,80,0.00,,,0.02,,2013-02-23 19:52:00,
2013-02-23 15:01:00,37.0,31.0,29.94,SE,140,2.0,5.0,80,0.00,,,0.02,,2013-02-23 20:01:00,
2013-02-23 15:11:00,37.0,31.0,29.94,SE,140,2.0,5.0,80,0.00,,,0.02,,2013-02-23 20:11:00,
2013-02-23 15:21:00,37.0,31.0,29.94,SE,140,2.0,5.0,80,0.00,,,0.02,,2013-02-23 20:21:00,
2013-02-23 15:32:00,37.0,31.0,29.94,South,179,3.0,7.0,80,0.00,,,0.02,,2013-02-23 20:32:00,
2013-02-23 15:42:00,37.0,31.0,29.94,South,179,3.0,7.0,80,0.00,,,0.02,,2013-02-23 20:42:00,
2013-02-23 15:53:00,36.0,30.0,29.95,SSW,200,3.0,8.0,78,0.00,,,0.02,,2013-02-23 20:53:00,
2013-02-23 16:02:00,36.0,30.0,29.95,SSW,200,3.0,8.0,78,0.00,,,0.02,,2013-02-23 21:02:00,
2013-02-23 16:11:00,35.0,29.0,29.95,West,281,3.0,7.0,79,0.00,,,0.02,,2013-02-23 21:11:00,
2013-02-23 16:22:00,35.0,29.0,29.95,West,281,3.0,7.0,79,0.00,,,0.02,,2013-02-23 21:22:00,
2013-02-23 16:32:00,35.0,29.0,29.95,West,281,3.0,7.0,79,0.00,,,0.02,,2013-02-23 21:32:00,
2013-02-23 16:42:00,35.0,29.0,29.95,West,281,3.0,7.0,79,0.00,,,0.02,,2013-02-23 21:42:00,
2013-02-23 16:52:00,34.0,29.0,29.95,NW,315,2.0,7.0,81,0.00,,,0.02,,2013-02-23 21:52:00,
2013-02-23 17:01:00,33.0,28.0,29.95,NW,314,1.0,4.0,82,0.00,,,0.02,,2013-02-23 22:01:00,
2013-02-23 17:11:00,33.0,28.0,29.96,West,267,1.0,4.0,83,0.00,,,0.02,,2013-02-23 22:11:00,
2013-02-23 17:22:00,33.0,28.0,29.96,West,267,1.0,4.0,83,0.00,,,0.02,,2013-02-23 22:22:00,
2013-02-23 17:32:00,33.0,28.0,29.95,NW,326,3.0,10.0,83,0.00,,,0.02,,2013-02-23 22:32:00,
2013-02-23 17:42:00,33.0,28.0,29.95,NW,326,3.0,10.0,83,0.00,,,0.02,,2013-02-23 22:42:00,
2013-02-23 17:52:00,32.0,27.0,29.95,NW,305,3.0,6.0,83,0.00,,,0.02,,2013-02-23 22:52:00,
2013-02-23 18:01:00,32.0,28.0,29.96,West,277,2.0,8.0,84,0.01,,,0.03,,2013-02-23 23:01:00,
2013-02-23 18:11:00,32.0,28.0,29.96,West,277,2.0,8.0,84,0.01,,,0.03,,2013-02-23 23:11:00,
2013-02-23 18:21:00,32.0,28.0,29.96,West,277,2.0,8.0,84,0.01,,,0.03,,2013-02-23 23:21:00,
2013-02-23 18:32:00,31.0,26.0,29.96,West,271,3.0,8.0,83,0.01,,,0.03,,2013-02-23 23:32:00,
2013-02-23 18:42:00,31.0,26.0,29.96,West,271,3.0,8.0,83,0.01,,,0.03,,2013-02-23 23:42:00,
2013-02-23 18:52:00,31.0,26.0,29.95,WNW,300,2.0,10.0,81,0.00,,,0.03,,2013-02-23 23:52:00,
2013-02-23 19:02:00,31.0,26.0,29.96,NNW,338,4.0,10.0,80,0.00,,,0.03,,2013-02-24 00:02:00,
2013-02-23 19:11:00,31.0,26.0,29.96,NNW,338,4.0,10.0,80,0.00,,,0.03,,2013-02-24 00:11:00,
2013-02-23 19:22:00,31.0,25.0,29.97,WNW,293,3.0,8.0,79,0.00,,,0.03,,2013-02-24 00:22:00,
2013-02-23 19:32:00,31.0,26.0,29.98,WNW,290,3.0,12.0,80,0.00,,,0.03,,2013-02-24 00:32:00,
2013-02-23 19:42:00,31.0,26.0,29.98,WNW,290,3.0,12.0,80,0.00,,,0.03,,2013-02-24 00:42:00,
2013-02-23 19:52:00,31.0,26.0,29.97,NNE,14,3.0,8.0,80,0.00,,,0.03,,2013-02-24 00:52:00,
2013-02-23 20:01:00,31.0,26.0,29.97,West,281,3.0,7.0,81,0.00,,,0.03,,2013-02-24 01:01:00,
2013-02-23 20:11:00,31.0,26.0,29.97,West,281,3.0,7.0,81,0.00,,,0.03,,2013-02-24 01:11:00,
2013-02-23 20:22:00,31.0,26.0,29.97,WNW,294,2.0,7.0,81,0.00,,,0.03,,2013-02-24 01:22:00,
2013-02-23 20:32:00,31.0,26.0,29.97,NW,317,1.0,7.0,80,0.00,,,0.03,,2013-02-24 01:32:00,
2013-02-23 20:42:00,31.0,26.0,29.97,NW,317,1.0,7.0,80,0.00,,,0.03,,2013-02-24 01:42:00,
2013-02-23 20:52:00,31.0,25.0,29.97,West,277,3.0,9.0,79,0.00,,,0.03,,2013-02-24 01:52:00,
2013-02-23 21:01:00,31.0,25.0,29.97,West,277,3.0,9.0,79,0.00,,,0.03,,2013-02-24 02:01:00,
2013-02-23 21:11:00,31.0,25.0,29.97,West,277,3.0,9.0,79,0.00,,,0.03,,2013-02-24 02:11:00,
2013-02-23 21:22:00,31.0,25.0,29.96,WNW,284,3.0,9.0,78,0.00,,,0.03,,2013-02-24 02:22:00,
2013-02-23 21:32:00,31.0,25.0,29.96,WNW,284,3.0,9.0,78,0.00,,,0.03,,2013-02-24 02:32:00,
2013-02-23 21:42:00,31.0,25.0,29.96,WNW,284,3.0,9.0,78,0.00,,,0.03,,2013-02-24 02:42:00,
2013-02-23 21:52:00,31.0,25.0,29.96,West,274,2.0,7.0,78,0.00,,,0.03,,2013-02-24 02:52:00,
2013-02-23 22:02:00,31.0,25.0,29.96,West,274,2.0,7.0,78,0.00,,,0.03,,2013-02-24 03:02:00,
2013-02-23 22:12:00,31.0,25.0,29.96,North,355,2.0,7.0,78,0.00,,,0.03,,2013-02-24 03:12:00,
2013-02-23 22:22:00,31.0,25.0,29.96,North,355,2.0,7.0,78,0.00,,,0.03,,2013-02-24 03:22:00,
2013-02-23 22:32:00,30.0,24.0,29.96,WNW,301,3.0,6.0,78,0.00,,,0.03,,2013-02-24 03:32:00,
2013-02-23 22:42:00,30.0,24.0,29.96,WNW,301,3.0,6.0,78,0.00,,,0.03,,2013-02-24 03:42:00,
2013-02-23 22:52:00,30.0,24.0,29.95,West,277,2.0,7.0,78,0.00,,,0.03,,2013-02-24 03:52:00,
2013-02-23 23:02:00,30.0,24.0,29.95,WNW,295,2.0,6.0,78,0.00,,,0.03,,2013-02-24 04:02:00,
2013-02-23 23:11:00,30.0,24.0,29.95,WNW,295,2.0,6.0,78,0.00,,,0.03,,2013-02-24 04:11:00,
2013-02-23 23:21:00,30.0,24.0,29.94,WNW,296,2.0,6.0,78,0.00,,,0.03,,2013-02-24 04:21:00,
2013-02-23 23:32:00,30.0,24.0,29.94,NW,319,3.0,7.0,78,0.00,,,0.03,,2013-02-24 04:32:00,
2013-02-23 23:42:00,30.0,24.0,29.94,NW,319,3.0,7.0,78,0.00,,,0.03,,2013-02-24 04:42:00,
2013-02-23 23:52:00,30.0,24.0,29.94,WNW,295,1.0,4.0,78,0.00,,,0.03,,2013-02-24 04:52:00,